Location: Banksville Park
(38.5557°N, 75.1182°W)
Time: 19:55:41
(UTC+00:00)

ISS - Visible Passes

Search period start: 29 November 2020 00:00
Search period end: 09 December 2020 00:00
Orbit: 418 x 420 km, 51.6° (Epoch: 30 November)

Date Brightness Start Highest point End Pass type
(mag) Time Alt. Az. Time Alt. Az. Time Alt. Az.
02 Dec -1.1 23:31:51 10° NNW 23:32:11 12° NNW 23:32:11 12° NNW visible
03 Dec -1.6 22:44:37 10° NNW 22:46:22 13° NNE 22:46:42 13° NNE visible
04 Dec -1.7 23:32:59 10° NW 23:34:16 19° NNW 23:34:16 19° NNW visible
05 Dec -2.4 22:45:37 10° NNW 22:48:23 23° NNE 22:49:00 22° NE visible
06 Dec -3.0 23:34:24 10° NW 23:36:57 48° WNW 23:36:57 48° WNW visible
07 Dec -3.7 22:46:50 10° NW 22:50:09 55° NE 22:52:09 21° ESE visible
08 Dec -0.3 00:24:44 10° W 00:25:12 12° WSW 00:25:12 12° WSW visible
08 Dec -1.5 23:36:21 10° WNW 23:39:09 25° SW 23:40:50 17° S visible
